Location: Cazavet
(43.0017°N, 1.0431°E)
Time: 20:40:23
(UTC+00:00)

Timation 2 Rocket - Pass Details

Date: 18 January 2026
Orbit: 906 x 1072 km, 70.0° (Epoch: 10 February)

Event Time Altitude Azimuth Distance (km) Brightness Sun altitude
Exits shadow 04:41:02 - 193° (SSW) 3,415 6.7 -29.2°
Reaches altitude 10° 04:42:39 10° 191° (S) 2,826 6.3 -28.9°
Maximum altitude 04:49:11 64° 111° (ESE) 1,104 4.4 -27.7°
Drops below altitude 10° 04:55:28 10° 32° (NNE) 2,728 6.6 -26.6°
Sets 04:57:59 0° 29° (NNE) 3,655 7.3 -26.1°
